IRIDIUM 33 DEB, 33887

Orbit data source: Space-Track

IRIDIUM 33 DEB, 33887 is space debris in LEO originally from a launch on Sun, 14 Sep 1997 UTC launched from the Tyuratam Missile And Space Complex (TTMTR). The debris from Iridium 33, an American commercial communications satellite, has been tracked extensively since its accidental collision with the defunct Russian satellite Cosmos 2251 in 2009. This event, occurring at high speed in low Earth orbit (LEO), generated thousands of pieces of space debris, significantly increasing the risk of further collisions. The Iridium 33 debris cloud has impacted space traffic management and orbital debris mitigation strategies, making it a subject of ongoing study in space situational awareness.

Loading next visibility...
Identifier
33887, 1997-051BG
Orbit
LEO
Country
Flag of USUS
Related business
Manufacturer
Unknown
Mission
Spacecraft
Bus & Motor
Unknown
Mass
Unknown
Launch date (UTC)
1997-09-14 (29 years ago)
Launch vehicle
Unknown
Launch site
Tyuratam Missile And Space Complex (TTMTR)
Object type
Payload
Rocket body
Debris
Shape & HBR
Unknown shape, 0.2 m
Radar Cross Section
Medium (>0.1 m² and <1 m²)

Expand to show TLE details & history
Last TLE update: 7 hours ago

TLE from 7 hours ago
0 IRIDIUM 33 DEB
1 33887U 97051BG  26169.57191279  .00000315  00000-0  98983-4 0  9996
2 33887  86.3037 282.4460 0005945   6.9307  11.2248 14.37397882908638
Epoch: 2026-06-18T13:43Z
TLE epoch observation values (Epoch: 2026-06-18T13:43:33.265Z)
Latitude
18.12093°
Longitude
170.94902°
Altitude
765.441 km
Speed
7.475 km/s
True Right ascension
18h 54m 36s
True Declination
18° 01' 11"
Sunlit
Object was in full shadow at epoch
Visualization orbit readout
Latitude
Unknown
Longitude
Unknown
Altitude
Unknown
Speed
Unknown
Apparent Right ascension
Unknown
Apparent Declination
Unknown
Sunlit
N/A
Visualization observer readout
Local Sidereal Time
07:09:26
Azimuth
Unknown
Elevation
Unknown
Doppler factor
Unknown
Orbital elements
Apogee altitude
768.317 km
Perigee altitude
759.825 km
Semi-major axis
7,142.208 km
Eccentricity
0.00059
Inclination
86.3037°
RAAN
282.446°
Arg. of periapsis
6.9307°
True anomaly
11.23807°
Mean anomaly
11.2248°
Eccentric anomaly
11.23143°
Mean motion
3.59579 °/min
Orbital period
100.12 mins
BSTAR
0.000098983
Loading maneuver chart data...
Computing Atmospheric mass density...

Documentation

Showing up to 5 results
|